Regional Weather Roundup
Issued by NWS

Home | Current Version | Previous Version | Text Only | Print | Product List | Glossary On
Versions: 1 2 3 4 5 6 7 8 9 10 11 12 13 14 15 16 17 18 19 20 21 22 23 24 25 26 27 28 29 30 31 32 33 34 35 36 37 38 39 40 41 42 43 44 45 46 47 48 49 50
000
ASCA44 KEWX 241820
RWRMX

LATIN AMERICA AND CARIBBEAN REGIONAL WEATHER ROUNDUP
NATIONAL WEATHER SERVICE AUSTIN/SAN ANTONIO TX
100 PM CDT FRI OCT 24 2014

NOTE: "FAIR" INDICATED FEW OR NO CLOUDS BELOW 12,000 FEET WITH NO
SIGNIFICANT WEATHER AND/OR OBSTRUCTIONS TO VISIBILITY.

BAJA CALIFORNIA

CITY           SKY/WX    TMP DP  RH WIND       PRES   REMARKS
LORETO         SUNNY     88  70  55 CALM      29.95S HX  92
LA PAZ         SUNNY     90  54  29 CALM      29.99
MEXICALI       SUNNY     88  46  23 W2        29.99
S.J. DEL CABO  SUNNY     91  66  43 CALM      30.00F HX  94
TIJUANA        SUNNY     84  36  17 S5        30.02S

NORTHWESTERN MEXICO

CITY           SKY/WX    TMP DP  RH WIND       PRES   REMARKS
CULIACAN       SUNNY     93  77  59 CALM      29.94  HX 107
DURANGO        PTSUNNY   72  52  49 E6        30.40F
GUAYMAS        SUNNY     90  75  62 CALM      29.91  HX 100
HERMOSILLO     SUNNY     91  52  25 SE8       30.02
CD. JUAREZ     SUNNY     72  48  43 CALM      30.22
LOS MOCHIS     SUNNY     91  59  33 N5        29.96F HX  90
OBREGON        SUNNY     90  70  51 S7        29.94  HX  95

NORTHEASTERN MEXICO

CITY           SKY/WX    TMP DP  RH WIND       PRES   REMARKS
CHIHUAHUA      MOSUNNY   75  48  38 CALM      30.31
MATAMOROS      MOSUNNY   82  68  61 N9        30.15
MONCLOVA       MOSUNNY   81  66  61 CALM      30.17
MONTERREY      PTSUNNY   77  64  65 SE5       30.17F
NUEVO LAREDO   SUNNY     82  64  54 CALM      30.17
PIEDRAS NEGRAS   N/A    N/A N/A N/A MISG        N/A
REYNOSA        SUNNY     79  61  53 NW6       30.14
SALTILLO       SUNNY     75  57  53 NW7       30.33F
TORREON        MOSUNNY   77  59  53 N5        30.27F
CD. VICTORIA   PTSUNNY   81  66  61 N8        30.16

WESTERN MEXICO

CITY           SKY/WX    TMP DP  RH WIND       PRES   REMARKS
AGUASCALIENTES MOSUNNY   70  46  43 NE14      30.39
COLIMA         MOSUNNY   82  66  57 NE7       30.06F
DEL BAJIO      PTSUNNY   72  50  46 CALM      30.39F
GUADALAJARA    MOSUNNY   77  52  41 SE9       30.28
MANZANILLO     SUNNY     90  77  66 SW8       29.88F HX 102
MAZATLAN       SUNNY     86  73  66 SE8       29.93F HX  93
P. VALLARTA    SUNNY     88  77  70 SW8       29.91F HX 100
URUAPAN        PTSUNNY   73  63  68 CALM      30.25F
ZACATECAS      PTSUNNY   70  46  43 E8        30.41F

CENTRAL MEXICO

CITY           SKY/WX    TMP DP  RH WIND       PRES   REMARKS
CUERNAVACA     MOSUNNY   77  59  53 CALM      30.18F
MEXICO CITY    MOSUNNY   66  45  45 N14       30.40F
MORELIA        PTSUNNY   72  54  53 N9        30.32
POZA RICA      PTSUNNY   82  79  89 N12       30.14  HX  93
PUEBLA         PTSUNNY   70  46  43 N13       30.37F
QUERETARO      PTSUNNY   66  50  55 E9        30.41F
S. LUIS POTOSI PTSUNNY   68  52  56 NE8       30.38F
TAMPICO        MOSUNNY   82  68  61 N13       30.12F
TOLUCA         PTSUNNY   64  41  42 NE14      30.45F

SOUTHERN MEXICO

CITY           SKY/WX    TMP DP  RH WIND       PRES   REMARKS
ACAPULCO       MOSUNNY   84  79  84 W6        29.89F HX  96
B. DE HUATULCO CLOUDY    84  73  70 CALM      29.95  HX  91
OAXACA         PTSUNNY   73  48  40 W12       30.25F
P. ESCONDIDO   MOSUNNY   84  75  74 SW7       30.03S HX  92
VERACRUZ       PTSUNNY   82  68  61 NE9       30.05S
ZIHUATANEJO    MOSUNNY   90  75  62 CALM      29.89F HX 100

YUCATAN PENINSULA

CITY           SKY/WX    TMP DP  RH WIND       PRES   REMARKS
CAMPECHE       MOSUNNY   82  77  83 N16       29.89F HX  91
CANCUN         PTSUNNY   86  75  70 NE7       29.85F HX  95
CHETUMAL       CLOUDY    81  79  94 E7        29.83F
CD. DEL CARMEN PTSUNNY   84  75  74 N18       29.93  HX  92
COZUMEL        PTSUNNY   79  77  94 CALM      29.84F
MERIDA         PTSUNNY   84  73  70 N14       29.91F HX  91
MINATITLAN     PTSUNNY   84  68  58 NW23      29.99
TAPACHULA      PTSUNNY   90  75  62 W12       29.90S HX 100
TUX. GUTIERREZ PTSUNNY   77  66  69 NW18G30   29.99F
VILLAHERMOSA   CLOUDY    75  73  94 CALM      29.98F

CENTRAL AMERICA

CITY           SKY/WX    TMP DP  RH WIND       PRES   REMARKS
BELIZE CITY    PTSUNNY   82  77  83 N8        29.83F HX  91
MANAGUA        PTCLDY    86  77  74 N7        29.80F HX  97

CARIBBEAN

CITY           SKY/WX    TMP DP  RH WIND       PRES   REMARKS
ARUBA          MOSUNNY   91  77  62 E16       29.77F HX 105
CURACAO        MOSUNNY   88  77  70 E10       29.80F HX 100
KINGSTON       MOSUNNY   90  77  66 S14       29.83F HX 102
NASSAU         RAIN      77  77 100 SE12      29.80F
SAN JUAN       MOSUNNY   91  73  55 S13G18    29.88F HX 100
SANTO DOMINGO  MOSUNNY   90  75  62 SE8       29.86F HX 100
ST. CROIX      MOSUNNY   88  75  66 SE9G17    29.91F HX  97
ST. KITTS      LGT RAIN  84  79  84 E12       29.89F HX  96
ST. MAARTEN    MOSUNNY   86  77  74 SE10      29.89F HX  97
ST. THOMAS     SUNNY     88  75  66 SE10      29.89  HX  97

$$




USA.gov is the U.S. government's official web portal to all federal, state and local government web resources and services.